When you browse on this site, cookies collect data to enhance your experience and personalize the content and advertising you see.
Visit our Privacy Policy to learn more. By continuing to use the site, you agree to this use of cookies and data.
  • în România
  • Lista ţărilor
  • Pe 7 zile
  • Temperatura apei
  • Meteo pe hartă
  • Widget-uri
  • user-avatar
    Intrare

    Meteo pe oră la Oran

    Astăzi, 2 Iunie, Marţi

    Timp Temperatura Precipitaţii Vânt Presiune Umiditate
    00:00 +23°C° 0 mm 1 m/s 751 mmHg 70%
    01:00 +23°C° 0 mm 1 m/s 751 mmHg 72%
    02:00 +22°C° 0 mm 1 m/s 750 mmHg 75%
    03:00 +22°C° 0 mm 1 m/s 750 mmHg 77%
    04:00 +22°C° 0 mm 1 m/s 750 mmHg 77%
    05:00 +22°C° 0 mm 1 m/s 750 mmHg 78%
    06:00 +22°C° 0 mm 1 m/s 750 mmHg 78%
    07:00 +23°C° 0 mm 1 m/s 751 mmHg 70%
    08:00 +25°C° 0 mm 2 m/s 751 mmHg 62%
    09:00 +26°C° 0 mm 2 m/s 751 mmHg 54%
    10:00 +28°C° 0 mm 2 m/s 751 mmHg 49%
    11:00 +29°C° 0 mm 3 m/s 751 mmHg 44%
    12:00 +31°C° 0 mm 3 m/s 750 mmHg 39%
    13:00 +30°C° 0 mm 3 m/s 750 mmHg 40%
    14:00 +30°C° 0 mm 4 m/s 750 mmHg 41%
    15:00 +30°C° 0 mm 4 m/s 750 mmHg 42%
    16:00 +29°C° 0 mm 3 m/s 750 mmHg 47%
    17:00 +28°C° 0 mm 2 m/s 749 mmHg 51%
    18:00 +27°C° 0 mm 2 m/s 749 mmHg 56%
    19:00 +25°C° 0 mm 2 m/s 750 mmHg 62%
    20:00 +24°C° 0 mm 2 m/s 750 mmHg 68%
    21:00 +23°C° 0 mm 2 m/s 751 mmHg 74%
    22:00 +23°C° 0 mm 2 m/s 750 mmHg 74%
    23:00 +23°C° 0 mm 2 m/s 750 mmHg 74%

    Mâine, 3 Iunie, Miercuri

    Timp Temperatura Precipitaţii Vânt Presiune Umiditate
    00:00 +23°C° 0 mm 2 m/s 749 mmHg 75%
    01:00 +21°C° 0 mm 2 m/s 749 mmHg 77%
    02:00 +21°C° 0 mm 2 m/s 749 mmHg 80%
    03:00 +20°C° 0 mm 2 m/s 749 mmHg 82%
    04:00 +21°C° 0 mm 2 m/s 748 mmHg 80%
    05:00 +21°C° 0 mm 2 m/s 748 mmHg 77%
    06:00 +21°C° 0 mm 2 m/s 748 mmHg 75%
    07:00 +24°C° 0 mm 2 m/s 748 mmHg 66%
    08:00 +25°C° 0 mm 3 m/s 748 mmHg 57%
    09:00 +27°C° 0 mm 3 m/s 749 mmHg 47%
    10:00 +28°C° 0 mm 4 m/s 748 mmHg 44%
    11:00 +29°C° 0 mm 4 m/s 748 mmHg 40%
    12:00 +30°C° 0 mm 5 m/s 748 mmHg 37%
    13:00 +30°C° 0 mm 5 m/s 747 mmHg 36%
    14:00 +32°C° 0 mm 5 m/s 747 mmHg 36%
    15:00 +32°C° 0 mm 5 m/s 747 mmHg 35%
    16:00 +30°C° 0 mm 5 m/s 746 mmHg 37%
    17:00 +29°C° 0 mm 5 m/s 746 mmHg 39%
    18:00 +28°C° 0 mm 6 m/s 746 mmHg 41%
    19:00 +28°C° 0 mm 5 m/s 746 mmHg 41%
    20:00 +27°C° 0 mm 5 m/s 746 mmHg 41%
    21:00 +26°C° 0 mm 5 m/s 746 mmHg 42%
    22:00 +26°C° 0 mm 5 m/s 746 mmHg 40%
    23:00 +26°C° 0 mm 6 m/s 746 mmHg 38%

    Poimâine, 4 Iunie, Joi

    Timp Temperatura Precipitaţii Vânt Presiune Umiditate
    00:00 +26°C° 0 mm 6 m/s 745 mmHg 37%
    01:00 +24°C° 0 mm 6 m/s 745 mmHg 38%
    02:00 +24°C° 0 mm 7 m/s 745 mmHg 39%
    03:00 +23°C° 0 mm 7 m/s 745 mmHg 41%
    04:00 +23°C° 0 mm 7 m/s 745 mmHg 46%
    05:00 +23°C° 0 mm 8 m/s 745 mmHg 52%
    06:00 +22°C° 0 mm 8 m/s 745 mmHg 57%
    07:00 +23°C° 0 mm 9 m/s 745 mmHg 52%
    08:00 +26°C° 0 mm 10 m/s 745 mmHg 48%
    09:00 +27°C° 0 mm 10 m/s 746 mmHg 43%
    10:00 +27°C° 0 mm 11 m/s 746 mmHg 41%
    11:00 +28°C° 0 mm 11 m/s 746 mmHg 40%
    12:00 +28°C° 0 mm 12 m/s 746 mmHg 39%
    13:00 +28°C° 0 mm 12 m/s 746 mmHg 39%
    14:00 +28°C° 0 mm 11 m/s 745 mmHg 40%
    15:00 +28°C° 0 mm 11 m/s 745 mmHg 40%
    16:00 +28°C° 0 mm 10 m/s 745 mmHg 43%
    17:00 +27°C° 0 mm 9 m/s 746 mmHg 46%
    18:00 +26°C° 0 mm 9 m/s 746 mmHg 49%
    19:00 +26°C° 0 mm 8 m/s 746 mmHg 53%
    20:00 +24°C° 0 mm 8 m/s 747 mmHg 57%
    21:00 +23°C° 0 mm 8 m/s 747 mmHg 60%
    22:00 +23°C° 0 mm 7 m/s 747 mmHg 63%
    23:00 +22°C° 0 mm 7 m/s 748 mmHg 65%

    5 Iunie, Vineri

    Timp Temperatura Precipitaţii Vânt Presiune Umiditate
    00:00 +22°C° 0 mm 7 m/s 748 mmHg 68%
    01:00 +22°C° 0 mm 7 m/s 748 mmHg 70%
    02:00 +21°C° 0 mm 7 m/s 748 mmHg 73%
    03:00 +21°C° 0 mm 7 m/s 748 mmHg 76%
    04:00 +21°C° 0 mm 7 m/s 748 mmHg 74%
    05:00 +21°C° 0 mm 6 m/s 748 mmHg 72%
    06:00 +22°C° 0 mm 6 m/s 749 mmHg 70%
    07:00 +23°C° 0 mm 6 m/s 749 mmHg 65%
    08:00 +24°C° 0 mm 7 m/s 749 mmHg 60%
    09:00 +26°C° 0 mm 7 m/s 750 mmHg 55%
    10:00 +27°C° 0 mm 7 m/s 750 mmHg 52%
    11:00 +28°C° 0 mm 7 m/s 749 mmHg 49%
    12:00 +29°C° 0 mm 7 m/s 749 mmHg 47%
    13:00 +29°C° 0 mm 7 m/s 749 mmHg 47%
    14:00 +29°C° 0 mm 7 m/s 749 mmHg 46%
    15:00 +29°C° 0 mm 6 m/s 749 mmHg 46%
    16:00 +29°C° 0 mm 5 m/s 749 mmHg 46%
    17:00 +28°C° 0 mm 4 m/s 749 mmHg 46%
    18:00 +28°C° 0 mm 3 m/s 749 mmHg 46%
    19:00 +27°C° 0 mm 3 m/s 749 mmHg 48%
    20:00 +26°C° 0 mm 3 m/s 749 mmHg 50%
    21:00 +26°C° 0 mm 3 m/s 750 mmHg 52%
    22:00 +25°C° 0 mm 2 m/s 749 mmHg 52%
    23:00 +25°C° 0 mm 2 m/s 749 mmHg 53%

    6 Iunie, Sâmbătă

    Timp Temperatura Precipitaţii Vânt Presiune Umiditate
    00:00 +25°C° 0 mm 1 m/s 749 mmHg 53%
    01:00 +24°C° 0 mm 1 m/s 749 mmHg 54%
    02:00 +24°C° 0 mm 1 m/s 749 mmHg 55%
    03:00 +24°C° 0 mm 1 m/s 748 mmHg 56%
    04:00 +24°C° 0 mm 1 m/s 748 mmHg 55%
    05:00 +25°C° 0 mm 1 m/s 748 mmHg 54%
    06:00 +25°C° 0 mm 1 m/s 749 mmHg 52%
    07:00 +27°C° 0 mm 1 m/s 749 mmHg 48%
    08:00 +28°C° 0 mm 1 m/s 749 mmHg 44%
    09:00 +29°C° 0 mm 2 m/s 749 mmHg 40%
    10:00 +30°C° 0 mm 2 m/s 749 mmHg 38%
    11:00 +31°C° 0 mm 3 m/s 748 mmHg 37%
    12:00 +33°C° 0 mm 3 m/s 748 mmHg 35%
    13:00 +33°C° 0 mm 3 m/s 748 mmHg 35%
    14:00 +33°C° 0 mm 4 m/s 748 mmHg 35%
    15:00 +33°C° 0 mm 4 m/s 747 mmHg 35%
    16:00 +31°C° 0 mm 3 m/s 747 mmHg 37%
    17:00 +30°C° 0 mm 3 m/s 747 mmHg 39%
    18:00 +29°C° 0 mm 2 m/s 747 mmHg 41%
    19:00 +28°C° 0 mm 3 m/s 747 mmHg 46%
    20:00 +27°C° 0 mm 4 m/s 748 mmHg 52%
    21:00 +26°C° 0 mm 5 m/s 748 mmHg 58%
    22:00 +24°C° 0.1 mm 6 m/s 748 mmHg 61%
    23:00 +23°C° 0.1 mm 6 m/s 749 mmHg 64%

    7 Iunie, Duminică

    Timp Temperatura Precipitaţii Vânt Presiune Umiditate
    00:00 +23°C° 0.1 mm 7 m/s 749 mmHg 67%
    01:00 +23°C° 0.1 mm 6 m/s 749 mmHg 65%
    02:00 +22°C° 0.1 mm 6 m/s 749 mmHg 64%
    03:00 +22°C° 0.1 mm 6 m/s 749 mmHg 62%
    04:00 +22°C° 0.1 mm 6 m/s 749 mmHg 61%
    05:00 +23°C° 0.1 mm 6 m/s 750 mmHg 59%
    06:00 +23°C° 0.1 mm 6 m/s 750 mmHg 57%
    07:00 +23°C° 0 mm 6 m/s 750 mmHg 56%
    08:00 +24°C° 0 mm 7 m/s 751 mmHg 54%
    09:00 +24°C° 0 mm 7 m/s 751 mmHg 53%
    10:00 +27°C° 0 mm 7 m/s 751 mmHg 50%
    11:00 +28°C° 0 mm 7 m/s 751 mmHg 47%
    12:00 +29°C° 0 mm 8 m/s 751 mmHg 44%
    13:00 +29°C° 0 mm 7 m/s 751 mmHg 44%
    14:00 +29°C° 0 mm 7 m/s 750 mmHg 45%
    15:00 +28°C° 0 mm 6 m/s 750 mmHg 45%
    16:00 +28°C° 0 mm 6 m/s 750 mmHg 46%
    17:00 +27°C° 0 mm 5 m/s 750 mmHg 47%
    18:00 +27°C° 0 mm 5 m/s 750 mmHg 48%
    19:00 +26°C° 0 mm 5 m/s 750 mmHg 50%
    20:00 +26°C° 0 mm 5 m/s 751 mmHg 51%
    21:00 +25°C° 0 mm 5 m/s 751 mmHg 53%
    22:00 +25°C° 0 mm 4 m/s 751 mmHg 53%
    23:00 +25°C° 0 mm 4 m/s 751 mmHg 52%
    Arată mai mult